Showing default

GONETS M 17, 46486

Orbit data source: Space-Track

GONETS M 17, 46486 is a payload satellite owned by Gonets (CIS) in LEO that was launched on Mon, 28 Sep 2020 UTC via a SOYUZ-2-1B launch vehicle from the Plesetsk Missile And Space Complex (PKMTR). Payload-class satellites include a variety of spacecraft equipped with specific instruments for various scientific and technological missions. These include communications satellites like Starlink; space stations such as the ISS; scientific satellites like the Hubble; Earth observation satellites from companies like Planet Labs, Umbra, and HawkEye 360; GPS; miniature CubeSats for education and research; and military/defense satellites.

Loading next visibility...
Identifier
46486, 2020-068A
Orbit
LEO
Country
Flag of CISCIS
Related business
Manufacturer
Resehetnev ISS
Mission
Operational Commercial Communications
Bus & Motor
STRELA-3M, Unknown motor
Mass
225 kg wet, 225 kg dry
Launch date (UTC)
2020-09-28 (5 years ago)
Launch vehicle
SOYUZ-2-1B
Launch site
Plesetsk Missile And Space Complex (PKMTR)
Object type
Payload
Rocket body
Debris
Shape & HBR
Cyl + 1 Ant, 3.5 m
Radar Cross Section
1.798 m², Large (>1 m²)

Expand to show TLE details & history
Last TLE update: 21 hours ago

TLE from 21 hours ago
0 GONETS M 17
1 46486U 20068A   25309.26327260  .00000013  00000-0  21382-4 0  9995
2 46486  82.4939 126.8129 0022819 162.7980 197.3878 12.42863922231344
Epoch: 2025-11-05T06:19Z
TLE epoch observation values (Epoch: 2025-11-05T06:19:06.752Z)
Latitude
-0.00002°
Longitude
-12.70369°
Altitude
1,514.336 km
Speed
7.1 km/s
True Right ascension
08h 27m 15s
True Declination
0° 00' 00"
Sunlit
Object was in daylight at epoch
Visualization orbit readout
Latitude
Unknown
Longitude
Unknown
Altitude
Unknown
Speed
Unknown
Apparent Right ascension
Unknown
Apparent Declination
Unknown
Sunlit
N/A
Visualization observer readout
Local Sidereal Time
23:02:11
Azimuth
Unknown
Elevation
Unknown
Doppler factor
Unknown
Orbital elements
Apogee altitude
1,509.796 km
Perigee altitude
1,473.879 km
Semi-major axis
7,869.975 km
Eccentricity
0.00228
Inclination
82.4939°
RAAN
126.8129°
Arg. of periapsis
162.798°
True anomaly
197.30987°
Mean anomaly
197.3878°
Eccentric anomaly
197.34881°
Mean motion
3.10873 °/min
Orbital period
115.8 mins
BSTAR
0.000021382
Loading maneuver chart data...
Computing Atmospheric mass density...
Loading historical data...
Loading historical data...
Loading historical data...
Loading historical data...
Loading historical data...
Loading historical data...
Loading historical data...

Documentation

Showing up to 5 results
|